Regional Weather Roundup
Issued by NWS State College, PA

Home | Current Version | Previous Version | Text Only | Print | Product List | Glossary On
Versions: 1 2 3 4 5 6 7 8 9 10 11 12 13 14 15 16 17 18 19 20 21 22 23 24 25 26 27 28 29 30 31 32 33 34 35 36 37 38 39 40 41 42 43 44 45 46 47 48 49 50
000
ASUS41 KCTP 091210
RWRCTP

REGIONAL WEATHER ROUNDUP
NATIONAL WEATHER SERVICE STATE COLLEGE PA
700 AM EST TUE FEB 09 2016

Note: "fair" indicates few or no clouds below 12,000 feet with no
significant weather and/or obstructions to visibility.

* = STATION THAT DOES NOT REPORT PRECIPITATION /E.G. RAIN...SNOW...ETC/
    THUNDER OR FOG.

PAZ002>004-007>009-013>016-020>023-029>032-091300-
WESTERN PENNSYLVANIA

CITY           SKY/WX    TMP DP  RH WIND       PRES   REMARKS
ERIE           CLOUDY    34  28  79 W10G18    29.53R
MEADVILLE      CLOUDY    31  28  89 W8        29.51R
FRANKLIN*      CLOUDY    30  27  86 SW5       29.52S
NEW CASTLE     CLOUDY    32  30  92 W3        29.54R
BEAVER COUNTY  CLOUDY    32  30  93 W3        29.53  FOG
BUTLER*        CLOUDY    30  28  93 CALM      29.55S
PITTSBURGH INT LGT SNOW  31  29  92 W5        29.52S FOG
PITTSBURGH     LGT SNOW  32  30  92 S3        29.52R FOG
INDIANA*       CLOUDY    32  32 100 CALM      29.54S FOG
LATROBE        NOT AVBL
WASHINGTON CO* PTCLDY    30  28  93 CALM      29.54R
$$

PAZ004>006-010>012-017>019-024>028-033>037-041-042-045-046-049>053-091300-
CENTRAL PENNSYLVANIA

CITY           SKY/WX    TMP DP  RH WIND       PRES   REMARKS
BRADFORD       LGT SNOW  30  27  88 CALM      29.46S FOG
DUBOIS         CLOUDY    30  28  92 SW3       29.48S FOG
CLEARFIELD     CLOUDY    31  28  89 SE3       29.51R FOG
JOHNSTOWN      LGT SNOW  29  24  82 NW6       29.46S
ALTOONA        CLOUDY    31  29  92 CALM      29.51R FOG
STATE COLLEGE  LGT SNOW  32  30  93 CALM      29.52R
WILLIAMSPORT   CLOUDY    32  26  78 E10       29.58R
SELINSGROVE    CLOUDY    31  27  85 SE6       29.59S
FT INDIANTOWN  FRZ RAIN  28  28 100 VRB6      29.60S FOG
CAPITAL CITY   LGT SNOW  31  28  89 E9        29.59S VSB 1
HARRISBURG     LGT SNOW  31  28  89 E9        29.59S
YORK           LGT SNOW  31  30  96 E8        29.58R FOG
$$

PAZ038>040-043-044-047-048-054-055-060>062-067>071-091300-
EASTERN PENNSYLVANIA

CITY           SKY/WX    TMP DP  RH WIND       PRES   REMARKS
SCRANTON       CLOUDY    28  21  75 CALM      29.58R
MOUNT POCONO   CLOUDY    21  19  92 E6        29.53R FOG     WCI  13
ALLENTOWN      CLOUDY    29  23  78 E8        29.64R
QUAKERTOWN*    CLOUDY    28  25  86 E6        29.63S
READING        CLOUDY    30  25  81 E7        29.62R
LANCASTER      LGT SNOW  29  28  96 E9        29.60S FOG
COATESVILLE    MIX PCPN  30  30 100 E7G16     29.61R
POTTSTOWN      CLOUDY    28  26  92 E6        29.64R
BLUE BELL        N/A     30  28  93 E6        29.63S
DOYLESTOWN     CLOUDY    26  24  92 CALM      29.63S
WILLOW GROVE   NOT AVBL
NORTH PHILA    CLOUDY    32  27  81 E12       29.66S
PHILADELPHIA   CLOUDY    32  27  81 E13       29.64S
$$




USA.gov is the U.S. government's official web portal to all federal, state and local government web resources and services.